Location: C.E.K. Mees Observatory
(42.7003°N, 77.4088°W)
Time: 17:10:10
(UTC-04:00)

Tiangong 2 - Pass Details

Date: 14 October 2017
Orbit: 388 x 391 km, 42.8° (Epoch: 22 October)

Event Time Altitude Azimuth Distance (km) Brightness Sun altitude
Exits shadow 06:30:50 16° 275° (W) 1,130 2.8 -10.2°
Maximum altitude 06:33:19 90° 241° (WSW) 394 1.1 -9.7°
Drops below altitude 10° 06:36:32 10° 96° (E) 1,419 5.6 -9.1°
Sets 06:38:36 0° 96° (E) 2,274 7.5 -8.7°
